| time (UTC) | temp F | wind direction | speed MPH | gust MPH | rain 1hr in | rain 24hr in | rain mn in | humidity % | barometer mb |
| 20260509200404 | 56 | 180 | 6.0 | 17.0 | 0.00 | 0.00 | 0.00 | 66 | 1008.0 |
| 20260509195403 | 56 | 147 | 4.0 | 15.0 | 0.00 | 0.00 | 0.00 | 65 | 1008.1 |
| 20260509194404 | 55 | 161 | 4.0 | 14.0 | 0.00 | 0.00 | 0.00 | 66 | 1008.1 |
| 20260509193404 | 54 | 117 | 4.0 | 15.0 | 0.00 | 0.00 | 0.00 | 66 | 1008.2 |
| 20260509192403 | 54 | 171 | 4.0 | 12.0 | 0.00 | 0.00 | 0.00 | 67 | 1008.1 |
| 20260509191404 | 54 | 125 | 2.0 | 13.0 | 0.00 | 0.00 | 0.00 | 66 | 1008.3 |
| 20260509190403 | 54 | 141 | 5.0 | 11.0 | 0.00 | 0.00 | 0.00 | 64 | 1008.5 |
| 20260509185404 | 55 | 135 | 2.0 | 17.0 | 0.00 | 0.00 | 0.00 | 61 | 1008.6 |
| 20260509184403 | 56 | 166 | 5.0 | 13.0 | 0.00 | 0.00 | 0.00 | 59 | 1008.7 |
| 20260509183404 | 57 | 195 | 3.0 | 16.0 | 0.00 | 0.00 | 0.00 | 59 | 1008.8 |
| 20260509182403 | 57 | 167 | 3.0 | 14.0 | 0.00 | 0.00 | 0.00 | 57 | 1008.8 |
| 20260509181403 | 57 | 199 | 3.0 | 14.0 | 0.00 | 0.00 | 0.00 | 55 | 1008.7 |
| 20260509180404 | 58 | 180 | 7.0 | 15.0 | 0.00 | 0.00 | 0.00 | 51 | 1008.7 |
| 20260509175404 | 58 | 178 | 6.0 | 16.0 | 0.00 | 0.00 | 0.00 | 49 | 1008.8 |
| 20260509174425 | 58 | 187 | 10.0 | 17.0 | 0.00 | 0.00 | 0.00 | 47 | 1008.9 |
| 20260509173424 | 59 | 189 | 5.0 | 15.0 | 0.00 | 0.00 | 0.00 | 46 | 1008.8 |
| 20260509172403 | 58 | 165 | 3.0 | 12.0 | 0.00 | 0.00 | 0.00 | 44 | 1008.9 |
| 20260509171425 | 58 | 182 | 5.0 | 13.0 | 0.00 | 0.00 | 0.00 | 42 | 1008.9 |
| 20260509170404 | 58 | 172 | 7.0 | 11.0 | 0.00 | 0.00 | 0.00 | 42 | 1009.0 |
| 20260509165404 | 58 | 174 | 6.0 | 11.0 | 0.00 | 0.00 | 0.00 | 44 | 1009.1 |
| 20260509164404 | 58 | 168 | 5.0 | 12.0 | 0.00 | 0.00 | 0.00 | 40 | 1009.1 |
| 20260509163403 | 58 | 175 | 6.0 | 13.0 | 0.00 | 0.00 | 0.00 | 39 | 1009.3 |
| 20260509162403 | 59 | 172 | 4.0 | 10.0 | 0.00 | 0.00 | 0.00 | 38 | 1009.4 |
| 20260509161403 | 59 | 180 | 4.0 | 10.0 | 0.00 | 0.00 | 0.00 | 38 | 1009.6 |
| 20260509160403 | 59 | 194 | 3.0 | 10.0 | 0.00 | 0.00 | 0.00 | 38 | 1009.8 |
| 20260509155403 | 59 | 174 | 4.0 | 9.0 | 0.00 | 0.00 | 0.00 | 38 | 1009.9 |
| 20260509154403 | 59 | 178 | 3.0 | 10.0 | 0.00 | 0.00 | 0.00 | 39 | 1010.1 |
| 20260509153403 | 58 | 158 | 5.0 | 10.0 | 0.00 | 0.00 | 0.00 | 39 | 1010.3 |
| 20260509152404 | 58 | 124 | 3.0 | 12.0 | 0.00 | 0.00 | 0.00 | 40 | 1010.5 |
| 20260509151403 | 58 | 162 | 3.0 | 9.0 | 0.00 | 0.00 | 0.00 | 40 | 1010.6 |
| 20260509150424 | 57 | 158 | 3.0 | 12.0 | 0.00 | 0.00 | 0.00 | 40 | 1010.7 |
| 20260509145403 | 57 | 148 | 1.0 | 16.0 | 0.00 | 0.00 | 0.00 | 41 | 1010.6 |
| 20260509144403 | 57 | 168 | 5.0 | 13.0 | 0.00 | 0.00 | 0.00 | 41 | 1010.7 |
| 20260509143404 | 57 | 221 | 2.0 | 13.0 | 0.00 | 0.00 | 0.00 | 41 | 1010.7 |
| 20260509142403 | 57 | 170 | 3.0 | 13.0 | 0.00 | 0.00 | 0.00 | 44 | 1010.9 |
| 20260509141403 | 57 | 145 | 4.0 | 11.0 | 0.00 | 0.00 | 0.00 | 42 | 1010.9 |
| 20260509140403 | 56 | 176 | 5.0 | 16.0 | 0.00 | 0.00 | 0.00 | 45 | 1010.9 |
| 20260509135403 | 55 | 149 | 4.0 | 15.0 | 0.00 | 0.00 | 0.00 | 47 | 1010.9 |
| 20260509134402 | 55 | 186 | 5.0 | 15.0 | 0.00 | 0.00 | 0.00 | 46 | 1010.9 |
| 20260509133403 | 55 | 175 | 5.0 | 11.0 | 0.00 | 0.00 | 0.00 | 46 | 1010.9 |
| 20260509132425 | 55 | 144 | 4.0 | 13.0 | 0.00 | 0.00 | 0.00 | 47 | 1011.0 |
| 20260509131403 | 54 | 168 | 1.0 | 11.0 | 0.00 | 0.00 | 0.00 | 49 | 1011.1 |
| 20260509130403 | 53 | 162 | 4.0 | 13.0 | 0.00 | 0.00 | 0.00 | 48 | 1011.3 |
| 20260509125403 | 52 | 154 | 2.0 | 11.0 | 0.00 | 0.00 | 0.00 | 49 | 1011.3 |
| 20260509124403 | 52 | 185 | 5.0 | 12.0 | 0.00 | 0.00 | 0.00 | 49 | 1011.5 |
| 20260509123423 | 51 | 187 | 4.0 | 11.0 | 0.00 | 0.00 | 0.00 | 51 | 1011.4 |
| 20260509122403 | 50 | 162 | 3.0 | 10.0 | 0.00 | 0.00 | 0.00 | 51 | 1011.4 |
| 20260509121403 | 50 | 160 | 3.0 | 9.0 | 0.00 | 0.00 | 0.00 | 52 | 1011.4 |
| 20260509120403 | 48 | 171 | 3.0 | 9.0 | 0.00 | 0.00 | 0.00 | 54 | 1011.4 |
| 20260509115403 | 48 | 167 | 6.0 | 11.0 | 0.00 | 0.00 | 0.00 | 55 | 1011.4 |
| 20260509114403 | 46 | 166 | 2.0 | 10.0 | 0.00 | 0.00 | 0.00 | 62 | 1011.4 |
| 20260509113403 | 44 | 168 | 3.0 | 8.0 | 0.00 | 0.00 | 0.00 | 64 | 1011.5 |
| 20260509112403 | 42 | 170 | 2.0 | 6.0 | 0.00 | 0.00 | 0.00 | 68 | 1011.4 |
| 20260509111403 | 39 | 166 | 2.0 | 9.0 | 0.00 | 0.00 | 0.00 | 73 | 1011.4 |
| 20260509110403 | 37 | 169 | 2.0 | 6.0 | 0.00 | 0.00 | 0.00 | 74 | 1011.4 |
| 20260509105403 | 36 | 172 | 1.0 | 6.0 | 0.00 | 0.00 | 0.00 | 78 | 1011.4 |
| 20260509104424 | 34 | 172 | 0.0 | 2.0 | 0.00 | 0.00 | 0.00 | 80 | 1011.4 |
| 20260509103403 | 34 | 172 | 1.0 | 3.0 | 0.00 | 0.00 | 0.00 | 80 | 1011.3 |
| 20260509102424 | 33 | 172 | 1.0 | 6.0 | 0.00 | 0.00 | 0.00 | 81 | 1011.1 |
| 20260509101403 | 33 | 172 | 1.0 | 6.0 | 0.00 | 0.00 | 0.00 | 81 | 1011.2 |
| 20260509100424 | 33 | 171 | 2.0 | 5.0 | 0.00 | 0.00 | 0.00 | 81 | 1011.1 |
| 20260509095403 | 33 | 171 | 1.0 | 7.0 | 0.00 | 0.00 | 0.00 | 80 | 1011.0 |
| 20260509094445 | 33 | 178 | 0.0 | 3.0 | 0.00 | 0.00 | 0.00 | 80 | 1011.0 |
| 20260509093403 | 33 | 178 | 1.0 | 4.0 | 0.00 | 0.00 | 0.00 | 80 | 1010.8 |
| 20260509092403 | 33 | 178 | 0.0 | 2.0 | 0.00 | 0.00 | 0.00 | 80 | 1010.7 |
| 20260509091403 | 34 | 178 | 0.0 | 3.0 | 0.00 | 0.00 | 0.00 | 80 | 1010.7 |
| 20260509090403 | 34 | 178 | 0.0 | 3.0 | 0.00 | 0.00 | 0.00 | 79 | 1010.7 |
| 20260509085403 | 34 | 178 | 0.0 | 5.0 | 0.00 | 0.00 | 0.00 | 80 | 1010.7 |
| 20260509084402 | 34 | 178 | 0.0 | 4.0 | 0.00 | 0.00 | 0.00 | 81 | 1010.7 |
| 20260509083403 | 34 | 178 | 1.0 | 4.0 | 0.00 | 0.00 | 0.00 | 80 | 1010.8 |
| 20260509082403 | 34 | 177 | 1.0 | 5.0 | 0.00 | 0.00 | 0.00 | 80 | 1010.7 |
| 20260509081424 | 34 | 177 | 0.0 | 5.0 | 0.00 | 0.00 | 0.00 | 80 | 1010.6 |
| 20260509080403 | 34 | 178 | 0.0 | 4.0 | 0.00 | 0.00 | 0.00 | 80 | 1010.6 |
| 20260509075402 | 34 | 178 | 1.0 | 4.0 | 0.00 | 0.00 | 0.00 | 80 | 1010.8 |
| 20260509074403 | 34 | 178 | 1.0 | 4.0 | 0.00 | 0.00 | 0.00 | 80 | 1010.8 |
| 20260509073403 | 33 | 176 | 0.0 | 4.0 | 0.00 | 0.00 | 0.00 | 80 | 1010.8 |
| 20260509072404 | 33 | 176 | 2.0 | 5.0 | 0.00 | 0.00 | 0.00 | 81 | 1010.9 |
| 20260509071403 | 32 | 176 | 1.0 | 4.0 | 0.00 | 0.00 | 0.00 | 82 | 1010.9 |
| 20260509065404 | 32 | 189 | 0.0 | 2.0 | 0.00 | 0.00 | 0.00 | 83 | 1010.9 |
| 20260509064404 | 32 | 190 | 0.0 | 3.0 | 0.00 | 0.00 | 0.00 | 83 | 1010.8 |
| 20260509063426 | 33 | 190 | 1.0 | 4.0 | 0.00 | 0.00 | 0.00 | 82 | 1010.9 |
| 20260509062404 | 33 | 190 | 1.0 | 3.0 | 0.00 | 0.00 | 0.00 | 82 | 1010.8 |
| 20260509061425 | 32 | 189 | 1.0 | 4.0 | 0.00 | 0.00 | 0.00 | 83 | 1010.8 |
| 20260509060403 | 32 | 190 | 1.0 | 4.0 | 0.00 | 0.00 | 0.00 | 82 | 1010.9 |
| 20260509055404 | 33 | 193 | 0.0 | 3.0 | 0.00 | 0.00 | 0.00 | 81 | 1010.9 |
| 20260509054405 | 33 | 194 | 0.0 | 3.0 | 0.00 | 0.00 | 0.00 | 81 | 1011.0 |
| 20260509053425 | 34 | 194 | 0.0 | 3.0 | 0.00 | 0.00 | 0.00 | 80 | 1011.0 |
| 20260509052404 | 34 | 193 | 0.0 | 3.0 | 0.00 | 0.00 | 0.00 | 79 | 1011.0 |
| 20260509051404 | 34 | 193 | 1.0 | 5.0 | 0.00 | 0.00 | 0.00 | 80 | 1010.9 |
| 20260509050404 | 34 | 195 | 1.0 | 5.0 | 0.00 | 0.00 | 0.00 | 79 | 1010.8 |
| 20260509045404 | 35 | 224 | 0.0 | 2.0 | 0.00 | 0.00 | 0.00 | 78 | 1010.8 |
| 20260509044405 | 35 | 223 | 1.0 | 4.0 | 0.00 | 0.00 | 0.00 | 77 | 1010.8 |
| 20260509043404 | 36 | 225 | 0.0 | 3.0 | 0.00 | 0.00 | 0.00 | 76 | 1010.8 |
| 20260509042405 | 36 | 224 | 0.0 | 2.0 | 0.00 | 0.00 | 0.00 | 75 | 1010.9 |
| 20260509041405 | 36 | 225 | 0.0 | 1.0 | 0.00 | 0.00 | 0.00 | 75 | 1010.8 |
| 20260509040425 | 35 | 224 | 0.0 | 4.0 | 0.00 | 0.00 | 0.00 | 77 | 1010.7 |
| 20260509035425 | 36 | 225 | 0.0 | 4.0 | 0.00 | 0.00 | 0.00 | 78 | 1010.7 |
| 20260509034404 | 36 | 225 | 0.0 | 2.0 | 0.00 | 0.00 | 0.00 | 75 | 1010.6 |
| 20260509033404 | 36 | 226 | 0.0 | 2.0 | 0.00 | 0.00 | 0.00 | 76 | 1010.6 |
| 20260509032404 | 36 | 226 | 0.0 | 2.0 | 0.00 | 0.00 | 0.00 | 77 | 1010.5 |
| 20260509031426 | 36 | 226 | 0.0 | 2.0 | 0.00 | 0.00 | 0.00 | 76 | 1010.4 |
| 20260509030404 | 36 | 229 | 0.0 | 0.0 | 0.00 | 0.00 | 0.00 | 75 | 1010.3 |
| 20260509025404 | 36 | 229 | 0.0 | 0.0 | 0.00 | 0.00 | 0.00 | 75 | 1010.3 |
| 20260509024405 | 37 | 229 | 0.0 | 0.0 | 0.00 | 0.00 | 0.00 | 74 | 1010.2 |
| 20260509023404 | 38 | 229 | 0.0 | 0.0 | 0.00 | 0.00 | 0.00 | 73 | 1010.3 |
| 20260509022405 | 38 | 229 | 0.0 | 0.0 | 0.00 | 0.00 | 0.00 | 72 | 1010.2 |
| 20260509021404 | 40 | 229 | 0.0 | 0.0 | 0.00 | 0.00 | 0.00 | 72 | 1010.3 |
| 20260509015404 | 41 | 229 | 0.0 | 0.0 | 0.00 | 0.00 | 0.00 | 68 | 1010.0 |
| 20260509014404 | 41 | 229 | 0.0 | 2.0 | 0.00 | 0.00 | 0.00 | 68 | 1010.0 |
| 20260509013425 | 41 | 228 | 0.0 | 2.0 | 0.00 | 0.00 | 0.00 | 67 | 1010.0 |
| 20260509012425 | 41 | 228 | 0.0 | 3.0 | 0.00 | 0.00 | 0.00 | 70 | 1009.8 |
| 20260509011404 | 42 | 229 | 0.0 | 0.0 | 0.00 | 0.00 | 0.00 | 69 | 1009.7 |
| 20260509010403 | 42 | 229 | 0.0 | 0.0 | 0.00 | 0.00 | 0.00 | 70 | 1009.6 |
| 20260509004404 | 44 | 229 | 0.0 | 0.0 | 0.00 | 0.00 | 0.00 | 66 | 1009.1 |
| 20260509003404 | 44 | 229 | 0.0 | 0.0 | 0.00 | 0.00 | 0.00 | 62 | 1009.1 |
| 20260509002404 | 45 | 229 | 0.0 | 0.0 | 0.00 | 0.00 | 0.00 | 62 | 1009.0 |
| 20260509001404 | 45 | 229 | 0.0 | 0.0 | 0.00 | 0.00 | 0.00 | 61 | 1009.0 |
| 20260509000403 | 46 | 229 | 0.0 | 0.0 | 0.00 | 0.00 | 0.00 | 60 | 1009.0 |
| 20260508235425 | 46 | 229 | 0.0 | 0.0 | 0.00 | 0.00 | 0.00 | 60 | 1008.9 |
| 20260508234404 | 47 | 229 | 0.0 | 0.0 | 0.00 | 0.00 | 0.00 | 59 | 1008.9 |
| 20260508233403 | 47 | 229 | 0.0 | 0.0 | 0.00 | 0.00 | 0.00 | 60 | 1008.8 |
| 20260508232404 | 47 | 229 | 0.0 | 0.0 | 0.00 | 0.00 | 0.00 | 58 | 1008.7 |
| 20260508231404 | 48 | 229 | 0.0 | 0.0 | 0.00 | 0.00 | 0.00 | 53 | 1008.7 |
| 20260508230404 | 48 | 228 | 0.0 | 1.0 | 0.00 | 0.00 | 0.00 | 51 | 1008.7 |
| 20260508225446 | 49 | 229 | 0.0 | 0.0 | 0.00 | 0.00 | 0.00 | 52 | 1008.6 |
| 20260508224424 | 49 | 229 | 0.0 | 0.0 | 0.00 | 0.00 | 0.00 | 47 | 1008.7 |
| 20260508223404 | 50 | 229 | 0.0 | 0.0 | 0.00 | 0.00 | 0.00 | 46 | 1008.7 |
| 20260508222404 | 50 | 229 | 0.0 | 3.0 | 0.00 | 0.00 | 0.00 | 48 | 1008.6 |
| 20260508221404 | 50 | 228 | 2.0 | 5.0 | 0.00 | 0.00 | 0.00 | 47 | 1008.6 |
| 20260508220404 | 50 | 210 | 1.0 | 8.0 | 0.00 | 0.00 | 0.00 | 45 | 1008.6 |
| 20260508215403 | 51 | 225 | 3.0 | 8.0 | 0.00 | 0.00 | 0.00 | 44 | 1008.6 |
| 20260508214404 | 52 | 265 | 2.0 | 7.0 | 0.00 | 0.00 | 0.00 | 43 | 1008.6 |
| 20260508213425 | 52 | 235 | 2.0 | 5.0 | 0.00 | 0.00 | 0.00 | 46 | 1008.5 |
| 20260508212403 | 51 | 231 | 1.0 | 7.0 | 0.00 | 0.00 | 0.00 | 44 | 1008.5 |
| 20260508211404 | 50 | 270 | 0.0 | 4.0 | 0.00 | 0.00 | 0.00 | 46 | 1008.5 |
| 20260508210403 | 50 | 270 | 0.0 | 7.0 | 0.00 | 0.00 | 0.00 | 46 | 1008.4 |
| 20260508205404 | 50 | 269 | 5.0 | 9.0 | 0.00 | 0.00 | 0.00 | 45 | 1008.4 |
| 20260508204403 | 50 | 276 | 2.0 | 7.0 | 0.00 | 0.00 | 0.00 | 45 | 1008.4 |
| 20260508203404 | 50 | 273 | 3.0 | 13.0 | 0.00 | 0.00 | 0.00 | 46 | 1008.4 |
| 20260508202404 | 50 | 240 | 5.0 | 11.0 | 0.00 | 0.00 | 0.00 | 45 | 1008.3 |
| 20260508201403 | 50 | 217 | 5.0 | 9.0 | 0.00 | 0.00 | 0.00 | 44 | 1008.4 |